User: anonymous   Login
Location: Aiyekoto
(8.4333°N, 4.3667°E)
Time: 16:19:06
(UTC+00:00)
Language:

Tiangong - Orbit

View from above orbital plane
View from above orbital plane
View from above satellite
View from above satellite

Ground track
Ground track

The orbit data is extracted from the following two-line orbital elements,

1 48274U 21035A   21260.23294387  .00008707  00000-0  10103-3 0  9995
2 48274  41.4706  81.4763 0002480 281.5405 245.4856 15.61898636 22097
Epoch (UTC): 17 September 2021 05:35:26
Eccentricity: 0.0002480
inclination: 41.4706°
perigee height: 380 km
apogee height: 384 km
right ascension of ascending node: 81.4763°
argument of perigee: 281.5405°
revolutions per day: 15.61898636
mean anomaly at epoch: 245.4856°
orbit number at epoch: 2209

The dashed part of the orbit path shows where the satellite is in the earth's shadow,  

DLR